DO5RS-5 Weather Reports


time (UTC)temp
C
wind
direction
speed
KPH
gust
KPH
rain 1hr
cm
rain 24hr
cm
rain mn
cm
humidity
%
barometer
mb
20260904061905 19 0.0 0.0 0.00 0.00 0.00 99 1019.1
20260904060905 19 0.0 0.0 0.00 0.00 0.00 99 1019.3
20260904055909 18 0.0 0.0 0.00 0.00 0.00 10 1019.4
20260904053910 18 0.0 0.0 0.00 0.00 0.00 99 1019.4
20260904050904 18 0.0 0.0 0.00 0.00 0.00 99 1019.4
20260904045904 18 0.0 0.0 0.00 0.00 0.00 10 1019.3
20260904044909 18 0.0 0.0 0.00 0.00 0.00 98 1019.5
20260904042907 18 0.0 0.0 0.00 0.00 0.00 98 1019.7
20260904041907 18 0.0 0.0 0.00 0.00 0.00 98 1019.7
20260904040904 18 0.0 0.0 0.00 0.00 0.00 98 1019.7
20260904035904 18 0.0 0.0 0.00 0.00 0.00 97 1019.6
20260904034905 18 0.0 0.0 0.00 0.00 0.00 97 1019.8
20260904033905 18 0.0 0.0 0.00 0.00 0.00 98 1019.8
20260904032905 18 0.0 0.0 0.00 0.00 0.00 98 1019.9
20260904031904 18 0.0 0.0 0.00 0.00 0.00 98 1019.9
20260904030904 18 0.0 0.0 0.00 0.00 0.00 99 1020.0
20260904025904 18 0.0 0.0 0.00 0.00 0.00 99 1020.1
20260904024905 18 0.0 0.0 0.00 0.00 0.00 99 1020.3
20260904023904 18 0.0 0.0 0.00 0.00 0.00 95 1020.4
20260904022905 18 0.0 0.0 0.00 0.00 0.00 97 1020.4
20260904021905 18 0.0 0.0 0.00 0.00 0.00 95 1020.5
20260904020909 18 0.0 0.0 0.00 0.00 0.00 95 1020.6
20260904013903 18 0.0 0.0 0.00 0.00 0.00 94 1020.7
20260904012903 18 0.0 0.0 0.00 0.00 0.00 94 1020.7
20260904011904 18 0.0 0.0 0.00 0.00 0.00 94 1020.7
20260904010905 18 0.0 0.0 0.00 0.00 0.00 94 1021.1
20260904005906 18 0.0 0.0 0.00 0.00 0.00 94 1021.1
20260904004906 18 0.0 0.0 0.00 0.00 0.00 94 1021.0
20260904003910 18 0.0 0.0 0.00 0.00 0.00 93 1021.0
20260904001905 18 0.0 0.0 0.00 0.00 0.00 93 1021.2
20260904000905 18 0.0 0.0 0.00 0.00 0.00 92 1021.2
20260903235910 18 0.0 0.0 0.00 0.00 0.00 91 1021.3
20260903234908 18 0.0 0.0 0.00 0.00 0.00 92 1021.4
20260903233906 18 0.0 0.0 0.00 0.00 0.00 92 1021.6
20260903232906 18 0.0 0.0 0.00 0.00 0.00 91 1021.7
20260903231904 18 0.0 0.0 0.00 0.00 0.00 91 1021.7
20260903230904 18 0.0 0.0 0.00 0.00 0.00 92 1021.6
20260903225904 19 0.0 0.0 0.00 0.00 0.00 92 1021.7
20260903224905 19 0.0 0.0 0.00 0.00 0.00 92 1021.9
20260903223906 19 0.0 0.0 0.00 0.00 0.00 92 1022.2
20260903222911 19 0.0 0.0 0.00 0.00 0.00 93 1022.1
20260903220907 19 0.0 0.0 0.00 0.00 0.00 92 1022.4
20260903215905 19 0.0 0.0 0.00 0.00 0.00 92 1022.4
20260903214906 19 0.0 0.0 0.00 0.00 0.00 89 1022.3
20260903213904 19 0.0 0.0 0.00 0.00 0.00 88 1022.4
20260903212904 19 0.0 0.0 0.00 0.00 0.00 88 1022.5
20260903211904 19 0.0 0.0 0.00 0.00 0.00 89 1022.5
20260903210910 19 0.0 0.0 0.00 0.00 0.00 88 1022.5
20260903204904 19 0.0 0.0 0.00 0.00 0.00 89 1022.3
20260903203905 19 0.0 0.0 0.00 0.00 0.00 89 1022.4
20260903202904 19 0.0 0.0 0.00 0.00 0.00 90 1022.2
20260903201904 20 0.0 0.0 0.00 0.00 0.00 90 1022.2
20260903200904 20 0.0 0.0 0.00 0.00 0.00 89 1022.3
20260903195904 20 0.0 0.0 0.00 0.00 0.00 88 1022.2
20260903194905 19 0.0 0.0 0.00 0.00 0.00 88 1022.3
20260903193906 20 0.0 0.0 0.00 0.00 0.00 89 1022.6
20260903192905 20 0.0 0.0 0.00 0.00 0.00 87 1022.6
20260903191905 20 0.0 0.0 0.00 0.00 0.00 88 1022.5
20260903190904 20 0.0 0.0 0.00 0.00 0.00 87 1022.3
20260903185904 20 0.0 0.0 0.00 0.00 0.00 86 1022.4
20260903184904 20 0.0 0.0 0.00 0.00 0.00 87 1022.3
20260903183909 20 0.0 0.0 0.00 0.00 0.00 85 1022.1
20260903175908 21 0.0 0.0 0.00 0.00 0.00 83 1022.1
20260903174908 21 0.0 0.0 0.00 0.00 0.00 81 1022.2
20260903173904 21 0.0 0.0 0.00 0.00 0.00 81 1022.0
20260903172913 21 0.0 0.0 0.00 0.00 0.00 80 1022.0
20260903170905 21 0.0 0.0 0.00 0.00 0.00 79 1021.9
20260903165904 21 0.0 0.0 0.00 0.00 0.00 79 1022.0
20260903164904 21 0.0 0.0 0.00 0.00 0.00 77 1021.8
20260903163905 21 0.0 0.0 0.00 0.00 0.00 77 1021.9
20260903162906 21 0.0 0.0 0.00 0.00 0.00 77 1022.0
20260903161910 21 0.0 0.0 0.00 0.00 0.00 77 1022.0
20260903160904 21 0.0 0.0 0.00 0.00 0.00 78 1022.0
20260903155904 21 0.0 0.0 0.00 0.00 0.00 78 1021.9
20260903154905 22 0.0 0.0 0.00 0.00 0.00 73 1021.7
20260903153910 22 0.0 0.0 0.00 0.00 0.00 64 1021.6
20260903151905 23 0.0 0.0 0.00 0.00 0.00 60 1021.3
20260903150909 24 0.0 0.0 0.00 0.00 0.00 58 1021.2
20260903144904 24 0.0 0.0 0.00 0.00 0.00 57 1021.2
20260903143905 24 0.0 0.0 0.00 0.00 0.00 57 1021.1
20260903142911 25 0.0 0.0 0.00 0.00 0.00 56 1021.2
20260903140904 25 0.0 0.0 0.00 0.00 0.00 56 1021.2
20260903135905 23 0.0 0.0 0.00 0.00 0.00 60 1021.4
20260903134905 21 0.0 0.0 0.00 0.00 0.00 64 1021.5
20260903133904 21 0.0 0.0 0.00 0.00 0.00 64 1021.7
20260903132904 21 0.0 0.0 0.00 0.00 0.00 64 1021.8
20260903131905 21 0.0 0.0 0.00 0.00 0.00 65 1021.8
20260903130905 21 0.0 0.0 0.00 0.00 0.00 65 1021.8
20260903125905 21 0.0 0.0 0.00 0.00 0.00 64 1021.9
20260903124905 21 0.0 0.0 0.00 0.00 0.00 63 1021.9
20260903123904 21 0.0 0.0 0.00 0.00 0.00 65 1021.8
20260903122908 21 0.0 0.0 0.00 0.00 0.00 69 1021.6
20260903120905 20 0.0 0.0 0.00 0.00 0.00 83 1021.9
20260903115909 20 0.0 0.0 0.00 0.00 0.00 83 1022.1
20260903113904 19 0.0 0.0 0.00 0.00 0.00 86 1022.3
20260903112909 19 0.0 0.0 0.00 0.00 0.00 82 1022.4
20260903110906 18 0.0 0.0 0.00 0.00 0.00 81 1022.6
20260903105905 18 0.0 0.0 0.00 0.00 0.00 79 1022.6
20260903104906 18 0.0 0.0 0.00 0.00 0.00 77 1022.6
20260903103905 18 0.0 0.0 0.00 0.00 0.00 74 1022.3
20260903102906 18 0.0 0.0 0.00 0.00 0.00 72 1021.9
20260903101906 18 0.0 0.0 0.00 0.00 0.00 72 1022.7
20260903100905 18 0.0 0.0 0.00 0.00 0.00 72 1022.7
20260903095904 18 0.0 0.0 0.00 0.00 0.00 72 1022.8
20260903094904 18 0.0 0.0 0.00 0.00 0.00 72 1022.9
20260903093904 18 0.0 0.0 0.00 0.00 0.00 73 1023.0
20260903092909 18 0.0 0.0 0.00 0.00 0.00 74 1023.1
20260903085905 18 0.0 0.0 0.00 0.00 0.00 72 1023.1
20260903084906 18 0.0 0.0 0.00 0.00 0.00 68 1023.2
20260903083906 18 0.0 0.0 0.00 0.00 0.00 69 1023.3
20260903082906 18 0.0 0.0 0.00 0.00 0.00 72 1023.4
20260903081905 17 0.0 0.0 0.00 0.00 0.00 73 1023.5
20260903080904 17 0.0 0.0 0.00 0.00 0.00 73 1023.6
20260903075904 17 0.0 0.0 0.00 0.00 0.00 73 1023.4
20260903074903 17 0.0 0.0 0.00 0.00 0.00 73 1023.3
20260903073905 17 0.0 0.0 0.00 0.00 0.00 73 1023.2
20260903072905 17 0.0 0.0 0.00 0.00 0.00 73 1023.4
20260903071905 17 0.0 0.0 0.00 0.00 0.00 74 1023.3
20260903070906 16 0.0 0.0 0.00 0.00 0.00 76 1023.7
20260903065906 16 0.0 0.0 0.00 0.00 0.00 75 1023.5
20260903064907 16 0.0 0.0 0.00 0.00 0.00 75 1023.5
20260903063907 16 0.0 0.0 0.00 0.00 0.00 76 1023.4
20260903062906 16 0.0 0.0 0.00 0.00 0.00 75 1023.4